Location: Newark
(36.8464°N, 25.6817°E)
Time: 06:40:50
(UTC+00:00)

Envisat - Pass Details

Date: 17 October 2019
Orbit: 764 x 766 km, 98.1° (Epoch: 19 November)

Event Time Altitude Azimuth Distance (km) Brightness Sun altitude
Rises 17:38:24 0° 208° (SSW) 3,218 6.5 -24.7°
Reaches altitude 10° 17:41:33 10° 229° (SW) 2,298 6.0 -25.3°
Maximum altitude 17:44:42 17° 268° (W) 1,888 5.9 -25.9°
Drops below altitude 10° 17:47:53 10° 307° (NW) 2,307 6.3 -26.6°
Sets 17:51:03 0° 328° (NNW) 3,238 6.8 -27.2°
